Погода Большой Улуй

Погода Большой Улуй : погода сейчас, прогноз погоды и архив. Всё, что Вы хотите узнать о погоде Большой Улуй!

Поиск расширенной информации на нашем сайте:

Полезная информация: Дома из пенобетона в спб строительство домов из пенобетона.

Другие новости

Новости СМИ2

Главная страница сайта

Новости сайта

02.10.2013

Напоминаем, что на нашем новом сайте вы можете получить высокодетализированные прогнозы погоды по пунктам России, СНГ и мира (включающие важные для авиации метеовеличины, такие как направление и скорость ветра, видимость, явления погоды, количество и форма облачности, нижняя и верхняя граница облачности), а также ознакомиться с разнообразными материалами по авиационной метеорологии и подборкой полезных ссылок на эту тему.

Сайт Метеоцентр.Азия посвящён разработке технологий оптимизации авиаметеорологического обслуживания, включая проектирование и перспективное создание нескольких автоматизированных авиаметеорологических систем:
- система выпуска высокодетальных прогностических карт явлений погоды для нижнего воздушного пространства по России и ближнему зарубежью;
- система верификации прогнозов TAF (выпускаемых синоптиками официальных АМСГ РФ и ближнего зарубежья) и AUTOTAF (выпускаемых сайтом Метеоцентр.Азия) - выявление ошибок, онлайн-сопоставление с фактической погодой METAR, автоматическое внесение коррективов в прогнозы при резком отклонении фактической погоды от прогноза, подсчёт оправдываемости прогнозов по элементам и в целом;
- система обработки, анализа и отображения авиаметеорологической информации для применения провайдерами метеорологической информации.

Рекомендуем: Камень натуральный облицовочный купить камни природные природный камень.

Погода Большой Улуй - сегодня

Время (UTC), дата Ветер
(°,м/с) 
Видим.   Явления Облачность Т
(°С)
Тd
(°С)
f(%) Тe
(°С)
Pmin
(гПа)
dP
(гПа)
Po
(мм)
O2
(г/м3)
Тmin Tmax R s Состояние
почвы
00 27.04.17 190 (Ю) 20000 м    4/0 верхняя 
[Ci fib]
+11.8 +1.1 48 +12  1016.2  -1  741  286  +11.3        сухая 
03 27.04.17 250 (З) 20000 м    8/0 верхняя 
[Ci fib]
+19.8 +1.8 30 +20  1014.6  -0.9  741  278           
06 27.04.17 240 (ЮЗ) 20000 м    6/0 верхняя 
[Ci fib]
+25.5 -0.1 19 +26  1012  -2  739  272           
09 27.04.17 250 (З) 6-10{11}  20000 м    8/0 верхняя 
[Ci fib]
+27.3 -3.3 13 +27  1009.4  -2.4  737  270           
12 27.04.17 270 (З) 6-11{13}  20000 м    8/0 верхняя 
[Ci fib]
+25.5 -5.9 12 +26  1008.6  -0.9  737  272    +27.6       
15 27.04.17 230 (ЮЗ) 4{11}  н/о    3/0 верхняя 
[Ci fib]
+20.4 -1 24 +20  1009.3  0.2  737  276           
18 27.04.17 230 (ЮЗ) н/о    ясно 
+17.7 -1.1 28 +18  1009.2  -0.3  737  279           
21 27.04.17 360 (С) н/о    6/0 средняя, верхняя 
[Ac trans|Ci fib]
+14.4 +2.4 44 +15  1011.4  1.8  738  282           
00 28.04.17 030 (СВ) 20000 м    9/9 600 м 
[Sc]
+11.7 +5.4 65 +11  1015.1  3.4  741  285  +11.7        сухая 
03 28.04.17 020 (С) 20000 м  {ливн. осадки}  9/9 600 м 
[Sc]
+10.5 +5.2 70 +10  1018.1  2.8  743  287  +10.1         
06 28.04.17 040 (СВ) 4000 м  дым{ливн. осадки}  8/0 средняя 
[Ac trans]
+14 +2.9 47 +14  1018.1  0.3  743  284           
09 28.04.17 030 (СВ) 20000 м    8/0 средняя, верхняя 
[Ac trans|Ci fib]
+15.6 +1 37 +16  1017.3  -0.6  742  283           
12 28.04.17 040 (СВ) 20000 м    9/0 средняя 
[Ac As]
+14.7 -0.7 35 +15  1016.5  -0.9  742  284    +16.1  0.0     
15 28.04.17 070 (В) н/о    9/0 средняя 
[Ac trans]
+11.7 -1.3 40 +13  1016.2  -0.6  741  287           
18 28.04.17 140 (ЮВ) н/о  слаб. ливневой дождь  10/10 600 м кучево-дожд. 
[Cb cap]
+7.8 +4.4 79 +9  1016  -0.5  741  290           
21 28.04.17 270 (З) н/о  ливневой дождь  10/10 600 м кучево-дожд. 
[Cb cap]
+7.7 +7.1 96 +9  1014.9  -1.1  740  289           
00 29.04.17 300 (СЗ) 20000 м  {ливн. осадки}  10/10 600 м кучево-дожд. 
[Cb cap]
+8 +7.1 94 +7  1014.8  -0.1  740  288  +6.8      влажная 
03 29.04.17 270 (З) 20000 м    10/10 600 м кучево-дожд. 
[Cb cap]
+6.9 +5.2 89 +6  1015.4  0.6  740  290           
06 29.04.17 270 (З) 6-10{11}  20000 м    6/3 600 м верхняя 
[Sc|Ci fib]
+12.7 +1.8 47 +12  1013.2  -1.7  739  284           
09 29.04.17 260 (З) 7-11{13}  20000 м    4/3 1000 м верхняя 
[Cu hum|Ci fib]
+16.3 +0.9 35 +16  1010.1  -2.7  737  280           
12 29.04.17 250 (З) 8-15{15}  20000 м    8/4 600 м средняя 
[Sc|Ac trans]
+16.6 -2.2 28 +16  1007.8  -2.2  736  280    +17.3       
15 29.04.17 350 (С) 6-11{15}  н/о    10/10 600 м кучево-дожд. 
[Cb cap]
+8.4 +3.7 72 +7  1011.8  3.2  738  288           
18 29.04.17 280 (З) 3{15}  н/о  слаб. ливневой дождь  10/10 600 м кучево-дожд. 
[Cb cap]
+3.8 +2.4 91 +3  1014.6  2.2  740  294           
21 29.04.17 280 (З) н/о  слаб. ливневой дождь  10/10 600 м кучево-дожд. 
[Cb cap]
+3.2 +2.7 97 +2  1015.5  0.8  740  294           
00 30.04.17 250 (З) 20000 м  {ливн. осадки}  10/10 600 м кучево-дожд. 
[Cb cap]
+3.3 +2.8 97 +2  1016.1  0.6  741  294  +3.1      влажная 
Время (UTC), дата Ветер
(°,м/с) 
Видим.   Явления Облачность Т
(°С)
Тd
(°С)
f(%) Тe
(°С)
Pmin
(гПа)
dP
(гПа)
Po
(мм)
O2
(г/м3)
Тmin Tmax R s Состояние
почвы

Для получения пояснительной информации подведите курсор к названию столбца.

ПОГОДА Большой Улуй - архив

Всё, что Вы хотите узнать о погоде Большой Улуй - удобно и подробно!

Выберите нужную дату (начиная с 1 января 2015* года) и нажмите кнопку "Найти".
Будут отображены архивные сводки погоды по пункту Большой Улуй, начиная с указанной даты.


Отображать данные в формате CSV (для использования в таблицах Excel)


Внимание! Наш архив погоды предназначен исключительно для личного некоммерческого использования в познавательных целях. Если Вам необходимы официальные справки о состоянии погоды (для производственных, юридических, коммерческих и т.п. целей), обращайтесь в органы Росгидромета.

*Примечание: данная дата относится к архиву по метеостанциям СССР (Россия, СНГ, Балтия).
Архив по метеостанциям Зарубежной Европы и Азии (кроме Китая) хранится 10 дней, по другим регионам земного шара (Китай, Африка, Америка, Австралия, Океания) - 1 день.

Большой Улуй - район местоположения метеостанции


Название, широта, долгота, высота метеостанции:
Большой Улуй 56.6°ш. 90.6°д. 231 м над ур. моря [Российская Федерация]

Дополнительная информация

В oтличие oт бoльшинства пoгoдных сайтoв мы публикуем пoдрoбную метеoинфoрмацию в детальнoм прoфессиoнальнoм фoрмате.

Характеристики температуры и влажнoсти вoздуха измеряются на высoте 2 м в тени вдали oт зданий и деревьев.
Скoрoсть ветра измеряется на высoте 10 м (на урoвне рoста челoвека скoрoсть ветра ниже в 1.5-2 раза). Если метеoстанция нахoдится в гoрoде или в лесу, тo скoрoсть ветра занижена на 2-4 м/с пo сравнению с oткрытым местoм. Скoрoсть ветра над акватoриями крупных рек и oзёр, а также на вершинах хoлмoв на 2-5 м/с выше, чем в oбычных услoвиях.
Атмoсфернoе давление в разных тoчках местнoсти мoжет значительнo oтличаться oт давления на метеoстанции, в зависимoсти oт услoвий рельефа (при пoдъёме на 10 м давление пoнижается примернo на 1 мм рт.ст.).